Tri-Cities, TN

9:13 PM EST on November 22, 2019 (GMT -0500)
Tri-Cities Regional Tennessee / Virginia

Weather History for KTRI - October, 2019

Change the Weather History Date:

Monday, October 21, 2019

  Actual Average Record
Temperature  
Mean Temperature 64 °F 55 °F  
Max Temperature 76 °F 68 °F 84 °F (1979)
Min Temperature 52 °F 42 °F 22 °F (1952)
Degree Days  
Heating Degree Days 1 11  
Month to date heating degree days 90 162  
Since 1 July heating degree days 90 215  
Cooling Degree Days 0 0  
Month to date cooling degree days 67 9  
Year to date cooling degree days 1452 977  
Growing Degree Days 14 (Base 50)    
Moisture  
Dew Point 55 °F    
Average Humidity 75    
Maximum Humidity 100    
Minimum Humidity 50    
Precipitation  
Precipitation 0.00 in 0.07 in 2.06 in (1985)
Month to date precipitation 3.66 1.37  
Year to date precipitation 45.27 33.81  
Snow  
Snow 0.00 in 0.00 in - ()
Month to date snowfall 0.0 0.0  
Since 1 July snowfall 0.0 0.0  
Since 1 September snowfall 0.0 0.0  
Snow Depth 0.00 in    
Sea Level Pressure  
Sea Level Pressure 29.94 in    
Wind  
Wind Speed 5 mph (SSE)    
Max Wind Speed 16 mph    
Max Gust Speed 22 mph    
Visibility 7 miles    
Events Fog    
T = Trace of Precipitation, MM = Missing Value Source: NWS Daily Summary

Daily Weather History Graph

Daily Weather History Graph

Search for Another Location

Airport or City:

Astronomy

Oct. 21, 2019 Rise Set
Actual Time 7:42 AM EDT 6:45 PM EDT
Civil Twilight 7:15 AM EDT 7:12 PM EDT
Nautical Twilight 6:45 AM EDT 7:42 PM EDT
Astronomical Twilight 6:15 AM EDT 8:11 PM EDT
Moon 12:01 AM EDT (10/21) 2:53 PM EDT (10/21)
Length of Visible Light 11h 56m
Length of Day
11h 03m
Waning Gibbous, 48% of the Moon is Illuminated
Oct 21
Waning Gibbous
Oct 27
New
Nov 4
First Quarter
Nov 12
Full
Nov 19
Last Quarter

Hourly Weather History & Observations

Time (EDT) Temp. Dew Point Humidity Pressure Visibility Wind Dir Wind Speed Gust Speed Precip Events Conditions
12:15 AM 55.9 °F 55.0 °F 97% 30.03 in 3.0 mi Calm Calm - N/A   Overcast
12:40 AM 55.9 °F 55.0 °F 97% 30.02 in 1.0 mi Calm Calm - N/A   Overcast
12:53 AM 57.0 °F 55.0 °F 93% 29.98 in 0.8 mi Calm Calm - N/A   Overcast
1:53 AM 57.0 °F 55.9 °F 96% 29.98 in 0.8 mi Calm Calm - N/A   Overcast
2:22 AM 57.0 °F 55.9 °F 96% 30.02 in 3.0 mi Calm Calm - N/A   Overcast
2:53 AM 57.0 °F 55.9 °F 96% 29.97 in 3.0 mi Calm Calm - N/A   Overcast
3:53 AM 57.0 °F 55.9 °F 96% 29.96 in 4.0 mi Calm Calm - N/A   Overcast
4:53 AM 57.0 °F 55.9 °F 96% 29.95 in 6.0 mi Calm Calm - N/A   Overcast
5:51 AM 55.4 °F 55.4 °F 100% 29.99 in 6.0 mi Calm Calm - N/A   Scattered Clouds
5:53 AM 55.9 °F 55.0 °F 97% 29.94 in 6.0 mi Calm Calm - N/A   Scattered Clouds
6:44 AM 54.0 °F 53.1 °F 97% 30.00 in 6.0 mi ENE 4.6 mph - N/A   Mostly Cloudy
6:53 AM 54.0 °F 53.1 °F 97% 29.95 in 6.0 mi East 4.6 mph - N/A   Mostly Cloudy
7:15 AM 54.0 °F 52.0 °F 93% 30.00 in 7.0 mi East 4.6 mph - N/A Fog Shallow Fog
7:53 AM 53.1 °F 51.1 °F 93% 29.96 in 10.0 mi Calm Calm - N/A   Scattered Clouds
8:53 AM 57.0 °F 54.0 °F 89% 29.96 in 10.0 mi Calm Calm - N/A   Scattered Clouds
9:53 AM 61.0 °F 55.0 °F 81% 29.96 in 10.0 mi ESE 3.5 mph - N/A   Scattered Clouds
10:53 AM 64.9 °F 57.0 °F 75% 29.96 in 10.0 mi Calm Calm - N/A   Scattered Clouds
11:53 AM 72.0 °F 57.9 °F 61% 29.93 in 10.0 mi SE 10.4 mph - N/A   Scattered Clouds
12:53 PM 75.0 °F 57.0 °F 53% 29.91 in 10.0 mi SSE 10.4 mph 18.4 mph N/A   Mostly Cloudy
1:53 PM 75.9 °F 55.9 °F 50% 29.89 in 10.0 mi South 12.7 mph 19.6 mph N/A   Mostly Cloudy
2:53 PM 73.0 °F 55.9 °F 55% 29.88 in 10.0 mi South 5.8 mph - N/A   Mostly Cloudy
3:53 PM 73.9 °F 55.9 °F 53% 29.88 in 10.0 mi South 15.0 mph 19.6 mph N/A   Mostly Cloudy
4:53 PM 73.0 °F 55.0 °F 53% 29.89 in 10.0 mi South 12.7 mph - N/A   Mostly Cloudy
5:53 PM 71.1 °F 55.0 °F 57% 29.89 in 10.0 mi South 5.8 mph - N/A   Overcast
6:53 PM 69.1 °F 55.0 °F 61% 29.90 in 10.0 mi SSE 5.8 mph - N/A   Overcast
7:53 PM 66.9 °F 55.0 °F 66% 29.91 in 10.0 mi SE 5.8 mph - N/A   Mostly Cloudy
8:53 PM 66.9 °F 55.0 °F 66% 29.91 in 10.0 mi SSE 4.6 mph - N/A   Mostly Cloudy
9:53 PM 66.9 °F 55.0 °F 66% 29.90 in 10.0 mi SSE 4.6 mph - N/A   Mostly Cloudy
10:53 PM 66.9 °F 54.0 °F 63% 29.91 in 10.0 mi South 5.8 mph - N/A   Overcast
11:53 PM 66.9 °F 54.0 °F 63% 29.87 in 10.0 mi Calm Calm - N/A   Overcast